Newport News, VA

5:22 PM EST on February 07, 2016 (GMT -0500)
Felker Army Air Field

Weather History for KFAF - December, 2011

Change the Weather History Date:

Thursday, December 22, 2011

  Actual Average Record
Temperature  
Mean Temperature 60 °F -  
Max Temperature 68 °F 48 °F 76 °F (2013)
Min Temperature 53 °F 33 °F 23 °F (2005)
Degree Days  
Heating Degree Days 4    
Growing Degree Days 10 (Base 50)    
Moisture  
Dew Point 58 °F    
Average Humidity 90    
Maximum Humidity 100    
Minimum Humidity 76    
Precipitation  
Precipitation 0.00 in - - ()
Sea Level Pressure  
Sea Level Pressure 30.05 in    
Wind  
Wind Speed 4 mph (SSE)    
Max Wind Speed 14 mph    
Max Gust Speed 22 mph    
Visibility 8 miles    
Events Fog    
Averages and records for this station are not official NWS values.
T = Trace of Precipitation, MM = Missing Value Source: NWS Daily Summary

Daily Weather History Graph

Daily Weather History Graph

Search for Another Location

Airport or City:

Trip Planner

Search our weather history database for the weather conditions in past years. The results will help you decide how hot, cold, wet, or windy it might be!

Date:

Astronomy

Dec. 22, 2011 Rise Set
Actual Time 7:16 AM EST 4:53 PM EST
Civil Twilight 6:47 AM EST 5:22 PM EST
Nautical Twilight 6:14 AM EST 5:55 PM EST
Astronomical Twilight 5:43 AM EST 6:26 PM EST
Moon 4:58 AM EST (12/22) 3:01 PM EST (12/22)
Length of Visible Light 10h 34m
Length of Day
9h 36m
Waning Crescent, 6% of the Moon is Illuminated
Dec 22
Waning Crescent
Dec 24
New
Jan 1
First Quarter
Jan 9
Full
Jan 16
Last Quarter

Hourly Weather History & Observations

Time (EST) Temp. Dew Point Humidity Pressure Visibility Wind Dir Wind Speed Gust Speed Precip Events Conditions
12:55 AM 62.2 °F 57.7 °F 85% 29.97 in 10.0 mi SSW 8.1 mph - N/A   Mostly Cloudy
1:55 AM 61.7 °F 57.6 °F 86% 29.99 in 10.0 mi SW 8.1 mph - N/A   Mostly Cloudy
2:55 AM 62.2 °F 57.7 °F 85% 30.01 in 10.0 mi SW 6.9 mph - N/A   Scattered Clouds
3:55 AM 61.3 °F 57.7 °F 88% 30.02 in 10.0 mi SW 4.6 mph - N/A   Overcast
4:55 AM 59.7 °F 57.2 °F 91% 30.03 in 10.0 mi SSW 4.6 mph - N/A   Partly Cloudy
5:55 AM 60.1 °F 57.4 °F 91% 30.06 in 10.0 mi South 3.5 mph - N/A   Overcast
6:55 AM 56.8 °F 55.6 °F 96% 30.07 in 9.0 mi Calm Calm - N/A   Partly Cloudy
7:20 AM 57.2 °F 55.4 °F 94% 30.08 in 2.5 mi Calm Calm - N/A   Clear
7:22 AM 57.2 °F 55.4 °F 94% 30.08 in 1.2 mi Calm Calm - N/A   Clear
7:24 AM 55.4 °F 53.6 °F 94% 30.08 in 0.8 mi Calm Calm - N/A   Clear
7:25 AM 55.4 °F 53.6 °F 94% 30.08 in 0.5 mi Calm Calm - N/A Fog Fog
7:28 AM 53.6 °F 53.6 °F 100% 30.08 in 0.2 mi Calm Calm - N/A Fog Fog
7:34 AM 53.6 °F 53.6 °F 100% 30.09 in 0.2 mi Calm Calm - N/A Fog Fog
7:37 AM 53.6 °F 53.6 °F 100% 30.09 in 0.2 mi Calm Calm - N/A Fog Fog
7:41 AM 55.4 °F 53.6 °F 94% 30.09 in 0.5 mi Calm Calm - N/A Fog Fog
7:44 AM 55.4 °F 55.4 °F 100% 30.10 in 0.8 mi Calm Calm - N/A   Clear
7:45 AM 55.4 °F 55.4 °F 100% 30.10 in 1.0 mi Calm Calm - N/A   Clear
7:47 AM 55.4 °F 55.4 °F 100% 30.10 in 2.5 mi Calm Calm - N/A   Clear
7:48 AM 55.4 °F 55.4 °F 100% 30.10 in 3.0 mi Calm Calm - N/A   Clear
7:55 AM 56.7 °F 55.8 °F 97% 30.10 in 8.0 mi Calm Calm - N/A   Clear
8:23 AM 55.4 °F 53.6 °F 94% 30.12 in 8.0 mi SSW 3.5 mph - N/A   Mostly Cloudy
8:35 AM 57.2 °F 57.2 °F 100% 30.12 in 10.0 mi SSW 3.5 mph - N/A   Scattered Clouds
8:55 AM 59.2 °F 58.5 °F 97% 30.13 in 10.0 mi Calm Calm - N/A   Partly Cloudy
9:55 AM 61.9 °F 59.9 °F 93% 30.13 in 10.0 mi Calm Calm - N/A   Clear
10:55 AM 65.3 °F 60.8 °F 85% 30.12 in 10.0 mi Calm Calm - N/A   Clear
11:20 AM 66.2 °F 60.8 °F 83% 30.11 in 10.0 mi WNW 3.5 mph - N/A   Mostly Cloudy
11:31 AM 66.2 °F 60.8 °F 83% 30.10 in 10.0 mi WNW 3.5 mph - N/A   Scattered Clouds
11:55 AM 66.9 °F 61.2 °F 82% 30.10 in 10.0 mi SSE 8.1 mph - N/A   Partly Cloudy
12:16 PM 66.2 °F 60.8 °F 83% 30.09 in 10.0 mi Variable 4.6 mph - N/A   Mostly Cloudy
12:22 PM 66.2 °F 60.8 °F 83% 30.09 in 10.0 mi South 3.5 mph - N/A   Mostly Cloudy
12:26 PM 68.0 °F 60.8 °F 78% 30.08 in 10.0 mi Variable 5.8 mph - N/A   Overcast
12:44 PM 68.0 °F 60.8 °F 78% 30.08 in 10.0 mi South 4.6 mph - N/A   Overcast
12:55 PM 66.7 °F 60.6 °F 81% 30.07 in 10.0 mi South 6.9 mph - N/A   Overcast
1:55 PM 68.4 °F 60.6 °F 76% 30.07 in 10.0 mi SSE 5.8 mph - N/A   Mostly Cloudy
2:50 PM 66.2 °F 60.8 °F 83% 30.06 in 10.0 mi East 4.6 mph - N/A   Mostly Cloudy
2:53 PM 66.2 °F 60.8 °F 83% 30.06 in 10.0 mi East 3.5 mph - N/A   Mostly Cloudy
2:55 PM 66.2 °F 59.9 °F 80% 30.06 in 10.0 mi Variable 5.8 mph - N/A   Mostly Cloudy
3:03 PM 66.2 °F 59.0 °F 78% 30.06 in 10.0 mi East 5.8 mph - N/A   Mostly Cloudy
3:10 PM 66.2 °F 59.0 °F 78% 30.06 in 10.0 mi ESE 6.9 mph - N/A   Overcast
3:55 PM 62.6 °F 58.8 °F 87% 30.05 in 10.0 mi East 5.8 mph - N/A   Overcast
4:55 PM 61.2 °F 57.9 °F 89% 30.02 in 10.0 mi ESE 6.9 mph - N/A   Overcast
5:38 PM 59.0 °F 57.2 °F 94% 30.01 in 10.0 mi East 6.9 mph - N/A   Overcast
5:40 PM 59.0 °F 57.2 °F 94% 30.01 in 10.0 mi ESE 5.8 mph - N/A   Overcast
5:41 PM 59.0 °F 57.2 °F 94% 30.01 in 10.0 mi ESE 5.8 mph - N/A   Overcast
5:55 PM 59.7 °F 57.4 °F 92% 30.01 in 10.0 mi East 5.8 mph - N/A   Overcast
6:07 PM 59.0 °F 57.2 °F 94% 30.01 in 10.0 mi ESE 4.6 mph - N/A   Overcast
6:32 PM 60.8 °F 59.0 °F 94% 30.00 in 10.0 mi ESE 5.8 mph - N/A   Overcast
6:55 PM 60.4 °F 58.5 °F 93% 29.99 in 10.0 mi SE 5.8 mph - N/A   Overcast
7:09 PM 60.8 °F 59.0 °F 94% 29.99 in 10.0 mi SE 6.9 mph - N/A   Overcast
7:55 PM 62.2 °F 59.4 °F 90% 29.98 in 10.0 mi SSE 8.1 mph - N/A   Partly Cloudy
8:55 PM 62.2 °F 59.4 °F 90% 29.95 in 10.0 mi South 12.7 mph - N/A   Scattered Clouds
9:55 PM 64.6 °F 60.1 °F 85% 29.94 in 10.0 mi South 8.1 mph 17.3 mph N/A   Mostly Cloudy
10:55 PM 65.3 °F 59.7 °F 82% 29.90 in 10.0 mi South 11.5 mph - N/A   Scattered Clouds
11:55 PM 66.4 °F 59.4 °F 78% 29.89 in 10.0 mi SSW 13.8 mph 21.9 mph N/A   Mostly Cloudy